Location: Derby
(52.9213°N, 1.4761°W)
Time: 19:27:59
(UTC+01:00)

Tiros 1 - Pass Details

Date: 23 May 2025
Orbit: 620 x 651 km, 48.4° (Epoch: 13 June)

Event Time Altitude Azimuth Distance (km) Brightness Sun altitude
Rises 21:21:50 0° 272° (W) 2,906 11.5 -2.2°
Reaches altitude 10° 21:24:16 10° 264° (W) 2,002 10.4 -2.5°
Maximum altitude 21:28:29 36° 198° (SSW) 993 8.0 -3.0°
Drops below altitude 10° 21:32:44 10° 132° (SE) 2,015 9.0 -3.5°
Enters shadow 21:34:03 - 127° (SE) 2,502 9.5 -3.6°
Sets 21:35:11 0° 124° (SE) 2,927 - -3.7°
